Voltar ao catálogo

UTE-GALAPAGOS

AtivoRádio AmadorSSO
NORAD 67279·PAYLOAD·🇪🇨 Ecuador
Este nome de satélite ainda não foi confirmado por fontes oficiais.

Lançado Dec 28, 2025 de Vostochny Cosmodrome

Loading…

Próximas Passagens (próximas 24 horas)

TLE

AtualizadoSource: Space-Track

Época: Sep 14, 2026, 11:24 UTC

1 67279U 25313AH  26257.47556711  .00005468  00000-0  22907-3 0  9999
2 67279  97.3850 330.7088 0014915  54.6027 305.6601 15.23844787 39549

Acompanhe UTE-GALAPAGOS em tempo real com AllMySat

Download on the App Store